Change the Weather History Date:

Friday, August 23, 2013

  Actual Average (KBOS) Record (KBOS)
Temperature  
Mean Temperature 70 °F 71 °F  
Max Temperature 78 °F 79 °F 96 °F (1880)
Min Temperature 63 °F 64 °F 49 °F (1886)
Degree Days  
Heating Degree Days 0 0  
Month to date heating degree days 0  
Since 1 June heating degree days 61  
Since 1 July heating degree days 6  
Cooling Degree Days 4 7  
Month to date cooling degree days 181  
Year to date cooling degree days 613  
Since 1 June cooling degree days 583  
Growing Degree Days 20 (Base 50)    
Moisture  
Dew Point 58 °F    
Average Humidity 68    
Maximum Humidity 96    
Minimum Humidity 50    
Precipitation  
Precipitation 0.00 in 0.10 in 1.55 in (1970)
Month to date precipitation 2.57  
Year to date precipitation 27.84  
Sea Level Pressure  
Sea Level Pressure 29.98 in    
Wind  
Wind Speed 10 mph (North)    
Max Wind Speed 14 mph    
Max Gust Speed 25 mph    
T = Trace of Precipitation, MM = Missing Value Source: NWS Daily Summary

Daily Weather History Graph

Daily Weather History Graph

Search for Another Location

Airport or City:

Trip Planner

Search our weather history database for the weather conditions in past years. The results will help you decide how hot, cold, wet, or windy it might be!

Date:

Astronomy

Aug. 23, 2013 Rise Set
Actual Time 6:00 AM EDT 7:32 PM EDT
Civil Twilight 5:31 AM EDT 8:02 PM EDT
Nautical Twilight 4:55 AM EDT 8:37 PM EDT
Astronomical Twilight 4:17 AM EDT 9:15 PM EDT
Moon 8:44 PM EDT (8/23) 8:56 AM EDT (8/23)
Length of Visible Light 14h 30m
Length of Day
13h 32m
Waning Gibbous, 91% of the Moon is Illuminated
Aug 23
Waning Gibbous
Aug 28
Last Quarter
Sep 5
New
Sep 12
First Quarter
Sep 19
Full

Hourly Weather History & Observations

Time (EDT) Temp. Dew Point Humidity Pressure Visibility Wind Dir Wind Speed Gust Speed Precip Events Conditions
12:54 AM 69.1 °F 68.0 °F 96% 29.86 in - SW 11.5 mph - N/A   Unknown
1:54 AM 68.0 °F 66.9 °F 96% 29.86 in - West 10.4 mph - N/A   Unknown
2:54 AM 68.0 °F 66.9 °F 96% 29.85 in - WNW 10.4 mph - N/A   Unknown
3:54 AM 69.1 °F 66.0 °F 90% 29.86 in - NW 12.7 mph 20.7 mph N/A   Unknown
4:54 AM 69.1 °F 62.1 °F 78% 29.87 in - NW 13.8 mph 24.2 mph N/A   Unknown
5:54 AM 68.0 °F 61.0 °F 78% 29.89 in - NW 9.2 mph 17.3 mph N/A   Unknown
6:54 AM 66.9 °F 61.0 °F 81% 29.91 in - NNW 11.5 mph - N/A   Unknown
7:54 AM 69.1 °F 60.1 °F 73% 29.93 in - NNW 11.5 mph 25.3 mph N/A   Unknown
8:54 AM 72.0 °F 60.1 °F 66% 29.95 in - NNW 11.5 mph 17.3 mph N/A   Unknown
9:54 AM 71.1 °F 59.0 °F 66% 29.96 in - NNW 8.1 mph 17.3 mph N/A   Unknown
10:54 AM 72.0 °F 59.0 °F 64% 29.98 in - NNW 9.2 mph - N/A   Unknown
11:54 AM 73.9 °F 57.9 °F 57% 29.98 in - Variable 4.6 mph - N/A   Unknown
12:54 PM 73.9 °F 57.0 °F 55% 29.98 in - ENE 5.8 mph - N/A   Unknown
1:54 PM 75.9 °F 55.9 °F 50% 29.99 in - East 10.4 mph - N/A   Unknown
2:54 PM 73.9 °F 57.0 °F 55% 30.00 in - ENE 5.8 mph - N/A   Unknown
3:54 PM 73.9 °F 55.9 °F 53% 30.01 in - East 9.2 mph - N/A   Unknown
4:54 PM 73.9 °F 55.9 °F 53% 30.02 in - East 9.2 mph - N/A   Unknown
5:54 PM 71.1 °F 55.0 °F 57% 30.03 in - ESE 5.8 mph - N/A   Unknown
6:54 PM 69.1 °F 53.1 °F 57% 30.04 in - East 6.9 mph - N/A   Unknown
7:54 PM 68.0 °F 53.1 °F 59% 30.06 in - ENE 5.8 mph - N/A   Unknown
8:54 PM 66.9 °F 53.1 °F 61% 30.09 in - Calm Calm - N/A   Unknown
9:54 PM 66.0 °F 53.1 °F 63% 30.11 in - NW 4.6 mph - N/A   Unknown
10:54 PM 64.9 °F 51.1 °F 61% 30.12 in - NNW 10.4 mph - N/A   Unknown
11:54 PM 63.0 °F 48.9 °F 60% 30.14 in - North 10.4 mph - N/A   Unknown